This is the latest recevied weather packets stored in our database for station/object IZ1OSY-3. If no packets are shown the sender has not sent any weather packets the latest 10 day(s).
| Time | Temp. | Humidity | Pressure | Rain* | Wind** | Luminosity | Snow |
|---|---|---|---|---|---|---|---|
| 1777584616 | 8.89° C | 95% | 1024.3 hPa | - | - | - | - |
| 1777583712 | 8.89° C | 96% | 1024.2 hPa | - | - | - | - |
| 1777583416 | 8.89° C | 96% | 1024.1 hPa | - | - | - | - |
| 1777582511 | 9.44° C | 94% | 1024 hPa | - | - | - | - |
| 1777581310 | 9.44° C | 94% | 1023.9 hPa | - | - | - | - |
| 1777581015 | 9.44° C | 94% | 1023.9 hPa | - | - | - | - |
| 1777580110 | 9.44° C | 94% | 1023.7 hPa | - | - | - | - |
| 1777579813 | 9.44° C | 93% | 1023.7 hPa | - | - | - | - |
| 1777578909 | 10° C | 91% | 1023.6 hPa | - | - | - | - |
| 1777578612 | 10° C | 92% | 1023.5 hPa | - | - | - | - |
| 1777577708 | 10° C | 92% | 1023.4 hPa | - | - | - | - |
| 1777577411 | 10° C | 90% | 1023.3 hPa | - | - | - | - |
| 1777576507 | 10° C | 89% | 1023 hPa | - | - | - | - |
| 1777576211 | 10° C | 88% | 1023 hPa | - | - | - | - |
| 1777575306 | 10° C | 89% | 1022.9 hPa | - | - | - | - |
| 1777574105 | 10.56° C | 89% | 1022.8 hPa | - | - | - | - |
| 1777573809 | 10.56° C | 89% | 1022.7 hPa | - | - | - | - |
| 1777572904 | 10.56° C | 92% | 1022.5 hPa | - | - | - | - |
| 1777570503 | 11.11° C | 91% | 1022.1 hPa | - | - | - | - |
| 1777569302 | 11.11° C | 89% | 1022.1 hPa | - | - | - | - |
| 1777567805 | 11.11° C | 91% | 1022.2 hPa | - | - | - | - |
| 1777566900 | 11.11° C | 91% | 1022 hPa | - | - | - | - |
| 1777566604 | 11.11° C | 92% | 1022 hPa | - | - | - | - |
| 1777565699 | 11.11° C | 94% | 1021.8 hPa | - | - | - | - |
| 1777565403 | 11.11° C | 92% | 1021.8 hPa | - | - | - | - |
* Rain since midnight (hover to see other rain measurements)
** Current wind speed in m/s (hover to see current wind gust speed)